Regional Weather Roundup
Issued by NWS Upton, NY

Current Version | Previous Version | Text Only | Print | Product List | Glossary On
Versions: 1 2 3 4 5 6 7 8 9 10 11 12 13 14 15 16 17 18 19 20 21 22 23 24 25 26 27 28 29 30 31 32 33 34 35 36 37 38 39 40 41 42 43 44 45 46 47 48 49 50
000
ASUS41 KOKX 100208
RWROKX

REGIONAL WEATHER ROUNDUP
NATIONAL WEATHER SERVICE NEW YORK NY
900 PM EST FRI DEC 09 2016

NOTE: "FAIR" INDICATES FEW OR NO CLOUDS BELOW 12,000 FEET WITH NO
SIGNIFICANT WEATHER AND/OR OBSTRUCTIONS TO VISIBILITY.

NYZ071-072-176-178-NJZ106-104-100300-
NEW YORK CITY METRO AREA

CITY           SKY/WX    TMP DP  RH WIND       PRES   REMARKS
Central Park   CLEAR     31  11  43 NW9G23    30.29R WCI  23
Wall St Helipt CLEAR     33  14  45 CALM      30.29R
Bronx Bot Gard NOT AVBL
LaGuardia APRT PTCLDY    34  15  46 NW17G25   30.28R WCI  23
Kennedy INTL   PTCLDY    33   9  36 NW22G29   30.28R WCI  21
Breezy Point     N/A    N/A N/A N/A NW14G22     N/A
Newark/Liberty PTCLDY    32  12  43 NW13G20   30.29R WCI  22
Teterboro      CLEAR     31  10  41 NW13      30.28R WCI  21
$$

NYZ177-179-078>081-100300-
LONG ISLAND NEW YORK

CITY           SKY/WX    TMP DP  RH WIND       PRES   REMARKS
Jones Beach      N/A     32 N/A N/A NW23G32     N/A  WCI  19
Matinecock PT    N/A     32 N/A N/A NW23G32     N/A  WCI  19
Farmingdale    CLEAR     30  10  43 NW16G28   30.26R WCI  19
MacArthur/ISP  PTCLDY    29  13  51 NW13      30.23S WCI  19
Shirley        CLEAR     30  13  49 NW13      30.23S WCI  20
Westhampton    NOT AVBL
Southampton    NOT AVBL
Bridgehampton  NOT AVBL
East Hampton     N/A     29  13  51 NW10      30.21R WCI  20
Montauk          N/A     31  14  49 NW16G31   30.21R WCI  20
$$

NYZ052-065-067-100300-
HUDSON VALLEY

CITY           SKY/WX    TMP DP  RH WIND       PRES   REMARKS
White Plains   CLEAR     28  11  48 NW18      30.22S WCI  15
Newburgh       PTCLDY    23  14  68 W7        30.25S WCI  15
Montgomery     CLEAR     26  12  55 W5        30.24S WCI  20
Poughkeepsie   PTCLDY    26  11  52 W7        30.24S WCI  18
Albany         PTCLDY    23  14  68 W9        30.24R WCI  13
$$

NJZ001-105-106-008-010-013-015-019>022-104-100300-
NEW JERSEY

CITY           SKY/WX    TMP DP  RH WIND       PRES   REMARKS
Newark/Liberty PTCLDY    32  12  43 NW13G20   30.29R WCI  22
Teterboro      CLEAR     31  10  41 NW13      30.28R WCI  21
Caldwell       CLEAR     30  11  45 NW7       30.29R WCI  23
Somerville     CLEAR     31  14  49 NW10      30.29R WCI  22
Linden           N/A    N/A N/A N/A NW12G20   30.30R
Sussex         CLEAR     27  12  53 VRB3      30.25F
Andover          N/A     27  12  53 CALM      30.27S
Trenton        CLEAR     31  19  61 W6        30.30R WCI  25
Millville      PTCLDY    32  19  58 W10       30.36R WCI  24
Atlantic City  CLEAR     32  17  54 W12       30.33R WCI  23
Wrightstown    PTCLDY    31  19  62 W7        30.29R WCI  24
Toms River     MOCLDY    31  21  66 W7        30.32R WCI  24
Belmar         CLEAR     29  21  72 W10       30.29R WCI  20
$$

PAZ047>061-062-071-100300-
EASTERN PENNSYLVANIA

CITY           SKY/WX    TMP DP  RH WIND       PRES   REMARKS
Philadelphia   PTCLDY    33  17  51 W15       30.35R WCI  23
Allentown      CLEAR     29  20  69 W6        30.30R WCI  23
Scranton       CLEAR     23  16  74 S3        30.25F
$$

CTZ002-004>006-009-010-012-RIZ004-006-007-MAZ004-011-015-100300-
SOUTHERN NEW ENGLAND
 IN CT

CITY           SKY/WX    TMP DP  RH WIND       PRES   REMARKS
Bradley INTL   PTCLDY    27  10  49 NW12G25   30.20R WCI  17
Hartford       MOCLDY    28  11  48 NW12      30.22R WCI  18
Danbury        CLEAR     27  10  49 W8        30.23R WCI  19
Wtrbury/Oxford PTCLDY    27   9  46 N12       30.20R WCI  16
Bridgeport     CLEAR     31   9  39 NW16G26   30.24R WCI  20
Meriden        CLEAR     29  11  47 NW7       30.22R WCI  22
New Haven      PTCLDY    30  11  45 NW10G21   30.22S WCI  21
Chester          N/A     27  10  50 NW9G20    30.19S WCI  17
Groton         CLEAR     31  10  41 NW15      30.20S WCI  20
Wilimantic     CLEAR     28  10  46 VRB6      30.20R WCI  22

 IN RI

CITY           SKY/WX    TMP DP  RH WIND       PRES   REMARKS
Providence     CLEAR     27   8  44 NW12      30.18R WCI  17
Block Island   CLEAR     29  14  53 NW17G26   30.19R WCI  17
Westerly       CLEAR     29   8  41 VRB6      30.20R WCI  23
 IN MA

CITY           SKY/WX    TMP DP  RH WIND       PRES   REMARKS
Boston         PTCLDY    28   7  41 W16G24    30.16R WCI  16
Worcester      CLEAR     22   6  50 NW14G23   30.10R WCI   9
Westfield      CLEAR     26   8  46 NW14G32   30.18S WCI  14
Provincetown   MOCLDY    31  16  54 NW17G24   30.13R WCI  19
Nantucket      PTCLDY    32  13  45 NW18G25   30.12R WCI  20
$$

ANZ330-335-338-340-345-350-353-355-100300-
COASTAL MARINE OBSERVATIONS


STATION/POSITION TIME  SKY/WX   TEMP    WIND        PRES    VSBY  WAVE
                                AIR SEA DIR/SP/G                  HT/PER
                 (UTC)          (F)     (DEG/KT/KT) (MB)    (MI)  (FT/S)
NY HARB ENTRANCE 0050            37 51  320/ 25/ 33 1023.8          6/ 5
20 S FIRE ISLAND 0050            37 52  320/ 25/ 29 1023.2          7/ 6
GREAT SOUTH BAY  0130            33 41                N/A
23 SSW MONTAUK P 0050            37 54  310/ 21/ 27 1021.9          5/ 6
15 E BARNEGAT LI 0130               51                N/A           5/ 4
HUDSON CANYON    0050            41 56              1022.5          9/ 8
KINGS POINT      0130            33 45              1024.9
EXECUTION ROCKS  0145            33     310/ 14/ 19   N/A
CENTRAL LI SOUND 0130            33 49  310/ 21/ 27   N/A           3/ 5
EASTERN LI SOUND NOT AVBL
ROBBINS REEF     0130            32     310/ 19/ 23 1025.4
$$


>>>>>>>>>>>>>>>>>>>>>>>>>>>> KEY <<<<<<<<<<<<<<<<<<<<<<<<<<<
>                                                          <
>     SKY/WX - Sky Condition/Present Weather               <
>     TMP    - Temperature in Fahrenheit                   <
>     DP     - Dew Point in Fahrenheit                     <
>     RH     - Relative Humidity in Percent                <
>     WIND   - Direction (from) and Speed in MPH           <
>     PRES   - Mean Sea Level Pressure (inches of Hg)      <
>     WCI    - Wind Chill Index                            <
>     VSB    - VISIBILITY IN MILES                         <
>     HX     - HEAT INDEX                                  <
>     TC     - TEMPERATURE IN CELSIUS                      <
>     VRB    - VARIABLE WIND DIRECTION                     <
>                                                          <
>>>>>>>>>>>>>>>>>>>>>>>>>>>> KEY <<<<<<<<<<<<<<<<<<<<<<<<<<<



USA.gov is the U.S. government's official web portal to all federal, state and local government web resources and services.